[Date Prev][Date Next][Thread Prev][Thread Next] - [Date Index][Thread Index][Author Index]
2 Line ISS Keps 6-17
- Subject: [sarex] 2 Line ISS Keps 6-17
- From: "Dave Larsen PhD" <doc@xxxxxxxxxxx>
- Date: Mon, 17 Jun 2002 03:03:25 -0700
ISS
1 25544U 98067A 02168.15087486 -.00009833 00000-0 -12303-3 0 5720
2 25544 51.6378 53.0849 0007237 243.5724 253.2323 15.57785664204029
----
Via the sarex mailing list at AMSAT.ORG courtesy of AMSAT-NA.
To unsubscribe, send "unsubscribe sarex" to Majordomo@amsat.org
AMSAT Home